EHI
0 0 0 0 0 0 0 0 0 1 5 12 20 28 35 40 40 40 45 49 55 62 66 64 61 59 55 52 52 52 49 45 45 43 40 37 34 28 23 21 20 19 19 19
0 0 0 0 0 0 0 0 0 2 7 15 23 30 36 40 42 42 45 49 55 63 67 65 60 58 57 55 56 55 51 48 46 43 39 36 33 29 24 21 18 18 19 19
0 0 0 0 0 0 0 0 0 3 9 17 25 32 38 43 45 47 48 51 57 62 65 63 59 58 58 58 58 57 53 51 47 43 39 35 31 29 25 20 17 17 18 17
0 0 0 0 0 0 0 1 2 7 13 19 26 33 40 45 50 53 53 54 58 60 60 59 58 57 57 57 56 54 52 50 46 41 38 33 30 28 24 19 16 16 16 14
0 0 0 0 0 0 1 2 6 12 19 23 26 33 40 48 56 59 58 59 60 59 58 57 57 57 56 57 55 52 49 47 43 39 36 32 29 26 23 19 16 13 11 10
0 0 0 1 1 0 1 4 11 20 26 28 30 35 45 55 61 65 65 63 62 60 59 59 59 58 57 57 55 50 46 43 41 37 34 30 27 25 22 19 15 10 8 7
0 1 1 2 3 5 11 16 20 29 36 38 41 46 53 59 63 64 63 61 61 61 62 62 61 60 58 56 53 48 44 41 38 34 31 28 27 24 22 20 16 11 7 5
3 5 9 12 14 20 30 32 30 35 44 49 51 54 56 57 57 58 57 56 58 60 61 61 61 60 59 56 51 46 42 37 32 27 25 25 26 24 22 21 17 12 8 5
11 15 21 25 28 32 34 34 33 38 46 50 51 54 55 53 51 52 53 55 57 57 57 59 59 58 57 54 50 44 39 33 26 21 20 22 23 21 20 19 16 12 9 7
22 24 29 34 35 32 29 29 32 37 42 44 47 53 55 53 52 52 54 55 56 56 55 57 57 56 55 51 47 41 35 30 24 20 20 22 21 17 15 15 14 11 9 9
28 30 33 36 34 29 27 30 33 37 40 42 48 55 57 55 54 54 56 56 55 54 53 53 53 53 52 49 44 38 32 27 23 20 20 20 17 13 10 9 9 8 8 9
29 33 36 38 36 32 31 33 36 39 43 45 49 56 56 53 52 54 55 54 51 49 48 48 48 49 49 47 43 38 31 25 22 19 17 15 13 10 6 4 3 3 3 4
28 30 34 37 39 39 38 38 40 44 47 45 46 51 54 51 49 50 51 49 46 44 44 45 45 47 47 45 42 37 29 22 19 17 15 14 12 9 5 2 1 0 0 1
25 27 30 34 38 41 41 41 43 45 45 42 40 44 48 48 46 46 45 45 44 42 42 43 44 45 44 40 37 34 26 18 16 16 15 14 13 11 8 6 3 2 0 0
24 25 27 31 34 36 37 38 39 39 37 34 32 35 39 41 42 42 41 42 42 41 41 42 43 44 41 35 32 29 23 16 15 17 15 14 12 12 10 8 5 4 1 0
20 21 25 28 30 31 31 33 33 30 26 25 25 27 29 32 35 37 38 40 39 38 38 39 41 42 38 33 28 25 19 14 13 15 14 13 11 10 8 6 5 4 2 0
15 18 22 25 27 26 26 27 28 24 21 19 21 23 23 25 29 34 36 37 38 35 33 34 35 35 33 29 25 20 15 11 9 10 11 10 8 6 4 3 3 3 2 1
11 14 19 22 23 22 21 21 21 19 18 17 17 19 20 23 28 32 34 36 35 32 29 27 26 26 25 23 21 17 12 7 5 5 6 6 5 4 2 1 1 2 2 1
10 12 16 19 19 19 18 16 15 16 17 16 15 15 18 21 26 29 29 29 29 27 26 23 19 20 20 17 16 15 11 6 3 3 3 4 4 3 2 1 0 1 1 0
9 11 14 16 17 17 16 15 13 14 17 16 13 13 16 18 22 24 22 20 19 20 20 16 13 15 16 12 9 10 9 6 3 3 3 3 3 3 2 1 0 0 0 0
5 8 11 13 14 14 14 13 13 14 15 14 12 12 13 14 17 18 17 14 13 13 12 10 9 11 11 7 4 5 6 5 4 3 3 3 3 3 2 1 0 0 1 1
3 4 6 9 11 12 12 12 12 13 14 13 11 10 10 12 14 15 14 12 11 8 7 7 7 7 5 3 2 2 3 4 3 3 3 3 3 3 2 0 0 0 0 0
4 4 5 7 9 10 11 11 11 12 13 13 12 11 11 11 11 12 11 10 7 4 4 5 4 2 1 1 1 1 1 2 3 3 3 3 3 3 2 1 0 0 0 0
6 6 6 7 7 8 9 10 10 11 11 12 13 12 12 11 9 9 10 8 4 1 2 2 1 0 0 1 1 0 0 1 2 2 3 3 3 3 3 2 1 1 0 0
7 8 8 7 6 6 6 7 7 7 8 10 12 11 10 9 8 8 9 7 3 0 0 0 0 0 0 0 0 0 0 1 2 3 3 3 3 3 3 2 1 0 0 0
7 8 8 7 5 4 3 3 3 3 5 8 9 8 6 6 6 7 7 6 2 0 0 0 0 0 0 0 0 0 0 0 1 2 3 2 1 1 2 1 0 0 0 0
5 6 6 4 2 2 2 3 3 3 3 6 7 5 5 5 5 5 5 4 2 0 0 0 0 0 0 0 0 0 0 0 0 1 2 2 1 0 1 1 0 0 0 0
Wind_Speed
15 14 13 15 17 17 17 14 12 9 9 9 7 8 8 10 10 10 10 10 9 9 9 8 8 8 7 7 7 7 7 6 6 5 4 4 4 3 3 3 4 4 3 4
15 16 15 15 16 17 17 16 15 11 6 8 8 8 7 7 10 10 10 10 10 9 9 9 8 7 7 7 7 7 6 6 6 6 5 4 4 4 4 4 4 4 5 6
13 16 16 18 16 15 14 14 13 11 6 7 9 9 9 8 8 8 9 9 10 10 9 8 8 7 7 8 7 7 6 6 6 6 5 4 5 5 5 4 4 5 6 6
12 13 18 13 12 14 13 12 11 8 6 6 7 8 7 8 8 8 8 8 9 9 9 8 8 8 7 8 8 7 6 6 5 5 5 5 4 5 5 4 4 4 5 6
10 14 15 13 11 12 12 10 8 7 5 5 7 7 7 7 8 7 7 7 7 8 8 8 8 8 8 8 7 7 7 6 5 5 5 5 5 5 5 4 4 5 5 5
11 13 13 10 11 10 9 8 6 5 5 6 7 6 5 7 9 9 8 6 6 7 8 8 8 8 8 7 7 6 6 6 5 5 5 5 5 5 5 4 5 5 5 5
14 13 9 6 6 8 10 3 0 1 3 5 3 2 6 8 9 9 9 9 7 7 7 6 7 7 7 7 6 5 6 6 5 5 5 6 5 5 5 5 5 5 5 5
13 13 8 3 6 3 2 3 2 2 4 6 6 7 7 7 7 9 8 9 8 7 6 5 6 7 7 6 6 6 6 6 6 5 5 6 6 5 5 5 5 5 5 5
5 4 2 4 4 4 3 3 3 3 4 6 6 6 7 7 7 7 8 8 7 7 7 6 6 7 7 7 6 7 7 6 6 6 5 6 5 5 4 4 4 4 4 4
2 2 1 1 2 2 2 3 2 2 3 4 6 7 7 6 5 5 6 7 7 7 7 6 7 7 7 7 7 7 7 7 6 6 6 5 3 4 3 3 3 3 3 4
4 2 1 1 2 2 2 2 2 2 1 3 5 8 7 6 5 4 4 5 6 6 7 7 7 7 7 7 7 8 7 6 6 6 6 5 4 3 3 3 2 2 2 3
3 2 3 1 1 2 0 1 3 2 1 3 5 7 7 6 5 4 4 4 5 6 7 7 8 7 7 7 8 8 7 6 5 5 5 5 6 5 9 7 8 9 7 6
2 0 2 2 2 2 2 1 3 3 2 3 4 5 6 6 5 5 5 4 5 6 7 8 8 7 7 7 7 7 6 6 5 5 5 5 5 6 5 5 8 9 8 9
2 2 3 2 1 2 2 2 3 3 2 3 4 5 5 5 5 5 4 5 5 6 7 7 8 7 7 7 7 6 6 5 5 4 5 4 4 4 5 6 5 4 5 6
1 1 2 2 0 1 1 1 1 2 2 3 3 4 5 5 5 4 4 5 6 6 6 6 7 7 6 7 6 6 5 4 4 4 4 4 4 4 4 5 6 6 5 4
1 0 1 1 1 1 1 0 0 1 1 2 2 3 4 5 5 5 5 6 6 5 5 6 6 6 6 6 6 5 4 4 4 4 4 4 4 4 5 5 5 6 6 6
2 2 2 2 1 1 1 2 2 1 1 2 2 3 4 5 5 5 5 5 5 5 5 5 5 5 6 6 6 4 4 5 5 4 4 4 4 4 4 4 5 5 4 6
2 2 2 1 0 1 0 1 2 2 2 2 2 3 4 4 5 4 5 5 5 6 5 5 5 5 5 5 4 3 4 5 4 4 3 3 3 3 4 4 5 5 5 6
2 1 1 1 1 1 1 1 1 1 1 2 3 3 4 4 4 4 4 4 5 5 5 5 6 6 5 5 4 3 4 5 4 3 3 3 3 3 3 4 4 4 5 6
1 1 1 1 0 0 0 1 1 1 1 2 3 3 3 4 4 4 5 4 2 3 4 6 6 5 5 5 4 4 4 5 5 4 3 3 4 3 3 3 4 4 4 5
1 1 2 1 0 1 1 1 1 2 1 2 3 3 3 3 4 4 4 3 3 3 5 6 4 4 4 4 4 3 4 4 4 4 4 3 3 3 3 3 3 4 4 4
2 2 1 1 0 0 0 1 1 2 2 2 3 3 3 3 4 3 3 3 4 5 4 4 4 4 4 5 4 4 4 4 4 4 4 3 3 3 3 3 3 3 3 3
2 1 1 0 0 1 0 0 1 1 2 2 2 3 3 3 3 3 3 3 5 5 4 3 5 7 6 4 3 3 3 4 3 4 4 4 4 4 3 4 3 3 3 3
1 0 0 0 0 0 0 1 1 1 1 2 3 3 3 2 2 3 3 5 5 6 4 6 8 7 5 3 2 3 3 3 3 3 4 4 4 3 3 3 3 3 3 4
1 0 0 1 1 1 1 2 2 2 3 2 3 4 3 2 2 2 4 7 8 6 5 6 7 6 4 3 3 3 3 2 2 2 2 2 3 4 3 3 3 3 3 3
1 1 1 1 1 2 2 2 1 2 2 2 2 2 3 3 4 4 4 7 8 5 4 5 5 5 3 2 2 2 2 3 3 2 2 2 2 2 3 3 4 3 3 3
2 2 1 1 1 2 1 2 2 2 2 2 2 2 2 3 4 4 5 5 5 4 4 4 4 3 3 2 2 2 1 1 1 1 2 2 2 2 3 4 3 3 3 3
Wind_Direction
262 266 250 227 224 228 234 244 247 229 203 199 162 151 154 153 151 145 143 144 139 139 133 133 136 140 139 137 133 133 135 137 137 129 119 112 107 100 88 79 78 67 59 52
253 257 257 251 236 226 227 236 246 244 210 159 138 146 154 159 152 149 152 150 143 137 138 141 143 146 140 136 133 133 137 139 132 126 124 120 113 102 92 81 72 66 63 60
247 242 247 242 237 236 231 230 237 242 215 164 155 161 156 157 158 154 154 151 147 146 146 145 148 143 140 137 136 137 135 134 132 132 131 126 120 110 102 93 83 72 73 75
248 247 242 243 239 238 239 239 234 229 200 177 162 149 151 156 152 151 150 147 142 143 145 147 144 140 138 141 142 141 139 137 136 138 133 124 116 112 106 100 93 85 82 84
238 240 242 241 231 233 233 236 238 226 196 179 157 151 155 144 137 139 141 136 139 141 143 142 141 140 140 142 143 144 143 141 139 136 132 128 121 115 110 107 101 94 88 84
240 241 239 237 227 229 234 230 232 210 195 177 171 190 159 138 136 132 124 116 121 129 133 133 137 139 139 138 140 141 138 136 132 132 131 127 122 118 115 113 110 105 95 86
239 243 247 260 251 222 222 211 343 206 164 152 150 119 119 121 119 118 120 122 125 127 122 125 128 132 133 133 135 132 129 127 127 126 124 121 116 118 121 117 110 106 103 93
233 238 233 273 241 238 90 61 67 75 95 108 100 105 116 121 121 125 128 128 126 118 113 120 127 131 130 131 132 128 124 124 123 125 129 122 121 123 124 126 125 122 119 114
223 236 27 14 63 70 72 77 69 80 105 117 124 128 133 135 132 131 130 128 126 124 122 127 132 135 136 135 133 130 126 126 125 124 114 121 131 136 139 148 150 146 147 136
182 193 246 8 26 60 54 63 71 94 129 137 149 147 135 126 125 130 132 132 132 132 133 134 135 133 134 137 136 134 135 134 134 131 126 123 131 140 146 151 152 148 144 136
202 220 270 341 16 24 54 55 108 132 148 154 148 137 132 131 135 132 129 137 140 140 142 142 139 136 142 143 141 141 142 141 140 138 138 132 108 71 96 69 71 117 114 121
216 219 216 136 29 352 53 122 108 104 99 93 118 127 129 134 136 138 139 139 141 144 147 144 144 144 148 150 148 147 150 154 156 155 147 143 129 99 56 74 76 78 81 91
290 310 95 81 34 1 358 51 89 81 90 101 113 122 124 127 130 135 138 145 152 152 146 144 147 146 149 152 155 158 158 162 162 162 159 164 159 149 131 92 72 70 84 96
31 71 94 89 56 347 356 37 83 85 78 97 112 119 122 126 135 143 145 141 145 149 146 148 148 150 153 155 158 161 162 164 170 167 163 167 165 160 154 151 141 118 95 107
38 85 122 120 160 346 14 51 111 129 114 113 119 125 131 135 142 148 140 134 134 140 146 149 150 151 155 160 165 168 167 167 171 157 158 166 162 156 155 152 147 141 133 126
313 27 155 157 228 225 219 163 82 65 103 108 107 116 128 135 138 139 137 137 142 148 148 149 150 152 157 163 165 166 156 154 160 159 165 163 159 161 159 156 157 154 153 149
229 214 224 197 196 192 198 148 136 160 87 89 106 122 129 134 139 138 141 144 140 136 138 142 147 152 161 164 169 171 163 158 163 171 176 170 170 166 162 163 162 159 155 155
239 226 210 149 173 179 210 91 119 123 115 98 117 129 133 137 141 140 145 143 135 129 134 142 145 154 160 163 168 166 164 165 175 183 178 167 163 162 167 167 167 161 149 152
210 189 192 194 220 216 161 121 101 105 114 132 125 123 128 137 138 134 129 134 144 148 148 141 149 160 160 159 160 169 170 167 170 174 163 154 168 171 165 163 161 158 156 156
122 156 160 163 161 279 193 144 148 153 140 132 128 131 135 137 138 140 137 136 150 153 145 145 156 163 161 160 178 179 171 169 171 173 171 172 172 166 164 166 169 166 160 161
90 104 123 139 188 243 190 171 168 170 167 165 151 145 141 145 151 151 153 144 134 140 141 143 161 162 160 156 178 177 168 167 162 161 171 172 166 168 171 175 171 166 165 167
45 61 76 93 329 60 120 169 182 182 177 160 145 140 143 154 160 159 155 146 142 144 158 162 162 145 143 154 175 179 175 168 161 164 166 167 173 179 178 175 173 169 167 168
16 50 74 57 1 14 9 205 188 173 160 155 148 149 161 165 168 163 154 148 146 149 161 141 123 124 136 169 178 173 174 172 172 172 168 172 182 182 175 174 173 171 171 168
332 57 78 237 201 177 193 221 211 181 169 167 163 159 165 167 161 160 139 128 125 143 147 126 133 139 158 185 186 180 181 185 187 183 174 174 176 172 168 168 172 171 161 155
305 274 230 232 218 217 208 206 200 192 190 175 166 164 166 171 162 143 137 135 140 150 141 142 152 162 183 196 194 188 185 184 179 176 180 173 167 164 166 170 173 166 153 150
265 269 276 238 224 222 218 216 209 187 173 153 150 154 160 157 146 135 133 140 144 145 140 145 163 179 195 198 193 178 163 163 175 183 172 167 164 155 147 143 143 144 148 148
231 215 216 212 204 211 199 181 183 181 163 147 152 157 155 138 134 134 133 136 141 146 145 147 155 167 188 190 154 135 130 137 143 143 140 134 125 121 121 123 123 122 126 127